Weather History for Bentonville, AR

Change the Weather History Date:

Friday, October 12, 2012

  Actual Average Record
Temperature  
Mean Temperature 64 °F -  
Max Temperature 69 °F 73 °F 88 °F (1975)
Min Temperature 60 °F 46 °F 30 °F (1987)
Growing Degree Days 14 (Base 50)    
Moisture  
Dew Point 60 °F    
Average Humidity 85    
Maximum Humidity 94    
Minimum Humidity 73    
Precipitation  
Precipitation 1.47 in - - ()
Sea Level Pressure  
Sea Level Pressure 30.16 in    
Wind  
Wind Speed 6 mph (SE)    
Max Wind Speed 20 mph    
Max Gust Speed 22 mph    
Visibility 10 miles    
Events Thunderstorm    
Averages and records for this station are not official NWS values.
T = Trace of Precipitation, MM = Missing Value Source: NWS Daily Summary

Daily Weather History Graph

Daily Weather History Graph

Search for Another Location

Airport:

Trip Planner

Search our weather history database for the weather conditions in past years. The results will help you decide how hot, cold, wet, or windy it might be!

Date:

Astronomy

Oct. 12, 2012 Rise Set
Actual Time 7:21 AM CDT 6:44 PM CDT
Civil Twilight 6:55 AM CDT 7:09 PM CDT
Nautical Twilight 6:26 AM CDT 7:39 PM CDT
Astronomical Twilight 5:56 AM CDT 8:09 PM CDT
Moon 4:10 AM CDT (10/12) 4:50 PM CDT (10/12)
Length of Visible Light 12h 14m
Length of Day
11h 22m
Waning Crescent, 10% of the Moon is Illuminated
Oct 12
Waning Crescent
Oct 15
New
Oct 21
First Quarter
Oct 29
Full
Nov 6
Last Quarter

Hourly Weather History & Observations

Time (CDT) Temp. Dew Point Humidity Pressure Visibility Wind Dir Wind Speed Gust Speed Precip Events Conditions
12:35 AM 64.4 °F 60.8 °F 88% 30.16 in 10.0 mi Calm Calm - N/A   Clear
12:55 AM 64.4 °F 59.0 °F 83% 30.16 in 10.0 mi Calm Calm - N/A   Mostly Cloudy
1:15 AM 64.4 °F 60.8 °F 88% 30.16 in 10.0 mi SSE 3.5 mph - N/A   Overcast
1:35 AM 66.2 °F 60.8 °F 83% 30.16 in 10.0 mi South 3.5 mph - N/A   Overcast
1:55 AM 66.2 °F 60.8 °F 83% 30.16 in 10.0 mi South 3.5 mph - N/A   Overcast
2:15 AM 64.4 °F 60.8 °F 88% 30.15 in 10.0 mi South 4.6 mph - N/A   Mostly Cloudy
2:36 AM 64.4 °F 60.8 °F 88% 30.14 in 10.0 mi South 4.6 mph - N/A   Clear
3:15 AM 64.4 °F 60.8 °F 88% 30.13 in 10.0 mi South 4.6 mph - N/A   Clear
3:35 AM 64.4 °F 60.8 °F 88% 30.12 in 10.0 mi South 4.6 mph - N/A   Clear
3:55 AM 64.4 °F 60.8 °F 88% 30.11 in 10.0 mi South 4.6 mph - N/A   Clear
4:15 AM 64.4 °F 60.8 °F 88% 30.11 in 10.0 mi SSE 3.5 mph - N/A   Clear
4:35 AM 62.6 °F 59.0 °F 88% 30.12 in 8.0 mi SSE 4.6 mph - N/A   Mostly Cloudy
4:55 AM 64.4 °F 60.8 °F 88% 30.12 in 9.0 mi South 4.6 mph - N/A   Overcast
5:15 AM 64.4 °F 62.6 °F 94% 30.12 in 10.0 mi SSE 4.6 mph - N/A   Mostly Cloudy
5:55 AM 66.2 °F 62.6 °F 88% 30.14 in 10.0 mi Calm Calm - N/A   Mostly Cloudy
6:15 AM 66.2 °F 62.6 °F 88% 30.14 in 10.0 mi SE 3.5 mph - N/A   Mostly Cloudy
6:36 AM 66.2 °F 62.6 °F 88% 30.15 in 10.0 mi SE 4.6 mph - N/A   Overcast
6:55 AM 66.2 °F 62.6 °F 88% 30.15 in 10.0 mi SSE 5.8 mph - N/A   Overcast
7:15 AM 68.0 °F 62.6 °F 83% 30.16 in 10.0 mi SE 3.5 mph - N/A Thunderstorm Overcast
7:35 AM 66.2 °F 62.6 °F 88% 30.18 in 10.0 mi ENE 12.7 mph 17.3 mph N/A Thunderstorm Overcast
7:55 AM 66.2 °F 60.8 °F 83% 30.18 in 10.0 mi ENE 19.6 mph - N/A Thunderstorm Overcast
8:15 AM 64.4 °F 59.0 °F 83% 30.20 in 10.0 mi ENE 15.0 mph 21.9 mph N/A Thunderstorm Thunderstorm
8:35 AM 64.4 °F 59.0 °F 83% 30.22 in 10.0 mi ENE 12.7 mph 20.7 mph 0.11 in Thunderstorm Thunderstorm
9:35 AM 62.6 °F 60.8 °F 94% 30.26 in 3.0 mi SE 6.9 mph - 0.84 in Thunderstorm Thunderstorm
10:15 AM 62.6 °F 60.8 °F 94% 30.25 in 9.0 mi ESE 10.4 mph - N/A Thunderstorm Thunderstorm
10:35 AM 62.6 °F 60.8 °F 94% 30.25 in 7.0 mi ESE 10.4 mph - N/A Thunderstorm Thunderstorm
11:15 AM 62.6 °F 60.8 °F 94% 30.25 in 9.0 mi SE 13.8 mph - N/A   Overcast
11:55 AM 62.6 °F 60.8 °F 94% 30.27 in 7.0 mi ESE 10.4 mph - 0.17 in   Overcast
12:15 PM 62.6 °F 60.8 °F 94% 30.27 in 7.0 mi SE 6.9 mph - 0.09 in   Overcast
12:55 PM 62.6 °F 60.8 °F 94% 30.25 in 8.0 mi SE 11.5 mph - 0.31 in   Overcast
1:35 PM 62.6 °F 60.8 °F 94% 30.22 in 10.0 mi SSE 11.5 mph - 0.03 in   Mostly Cloudy
1:55 PM 62.6 °F 60.8 °F 94% 30.19 in 10.0 mi SSE 12.7 mph - 0.04 in   Overcast
2:35 PM 64.4 °F 60.8 °F 88% 30.16 in 10.0 mi SSE 12.7 mph 18.4 mph N/A   Scattered Clouds
2:56 PM 64.4 °F 60.8 °F 88% 30.15 in 10.0 mi SSE 16.1 mph 20.7 mph N/A   Clear
3:15 PM 66.2 °F 60.8 °F 83% 30.14 in 10.0 mi SSE 15.0 mph 21.9 mph N/A   Clear
3:35 PM 69.8 °F 60.8 °F 73% 30.14 in 10.0 mi SSE 13.8 mph 20.7 mph N/A   Clear
4:15 PM 68.0 °F 59.0 °F 73% 30.14 in 10.0 mi SE 6.9 mph - N/A   Clear
4:35 PM 68.0 °F 59.0 °F 73% 30.14 in 10.0 mi SSE 3.5 mph - N/A   Clear
4:55 PM 69.8 °F 60.8 °F 73% 30.14 in 10.0 mi SSE 6.9 mph - N/A   Clear
5:16 PM 68.0 °F 60.8 °F 78% 30.15 in 10.0 mi SE 5.8 mph - N/A   Clear
5:55 PM 68.0 °F 60.8 °F 78% 30.15 in 10.0 mi SSE 6.9 mph - N/A   Clear
6:15 PM 68.0 °F 60.8 °F 78% 30.16 in 10.0 mi SSE 6.9 mph - N/A   Clear
6:35 PM 66.2 °F 59.0 °F 78% 30.16 in 10.0 mi SE 8.1 mph - N/A   Clear
6:55 PM 66.2 °F 59.0 °F 78% 30.15 in 10.0 mi SE 6.9 mph - N/A   Clear
7:15 PM 64.4 °F 59.0 °F 83% 30.15 in 9.0 mi SE 8.1 mph - N/A   Clear
7:35 PM 64.4 °F 57.2 °F 77% 30.14 in 10.0 mi SE 10.4 mph - N/A   Clear
7:55 PM 64.4 °F 57.2 °F 77% 30.14 in 10.0 mi SE 11.5 mph - N/A   Clear
8:15 PM 64.4 °F 57.2 °F 77% 30.14 in 10.0 mi SE 6.9 mph - N/A   Clear
8:55 PM 62.6 °F 57.2 °F 82% 30.14 in 10.0 mi SE 6.9 mph - N/A   Clear
9:35 PM 62.6 °F 57.2 °F 82% 30.13 in 10.0 mi SE 5.8 mph - N/A   Clear
9:55 PM 62.6 °F 57.2 °F 82% 30.15 in 10.0 mi Calm Calm - N/A   Clear
10:15 PM 60.8 °F 57.2 °F 88% 30.15 in 10.0 mi ESE 4.6 mph - N/A   Clear
10:35 PM 60.8 °F 57.2 °F 88% 30.14 in 10.0 mi SE 5.8 mph - N/A   Clear
11:15 PM 62.6 °F 57.2 °F 82% 30.13 in 10.0 mi ESE 5.8 mph - N/A   Clear
11:35 PM 62.6 °F 59.0 °F 88% 30.13 in 10.0 mi SE 5.8 mph - N/A   Clear
11:55 PM 60.8 °F 57.2 °F 88% 30.12 in 10.0 mi SE 5.8 mph - N/A   Clear